Location: Tel Aviv
(32.0670°N, 34.7670°E)
Time: 13:32:14
(UTC+02:00)

Tiangong - Visible Passes

Search period start: 29 November 2022 00:00
Search period end: 09 December 2022 00:00
Orbit: 385 x 393 km, 41.5° (Epoch: 29 November)

Date Brightness Start Highest point End Pass type
(mag) Time Alt. Az. Time Alt. Az. Time Alt. Az.
29 Nov -0.1 18:28:33 10° W 18:30:30 25° NW 18:30:30 25° NW visible
30 Nov -1.5 17:30:08 10° WSW 17:33:14 49° NNW 17:35:14 19° NE visible
01 Dec -0.2 18:09:46 10° WNW 18:12:11 21° NNW 18:12:11 21° NNW visible
02 Dec -0.7 17:11:06 10° W 17:13:55 28° NNW 17:16:45 10° NE visible
03 Dec 0.0 17:50:53 10° NW 17:53:01 16° N 17:53:36 16° N visible
04 Dec 0.9 18:30:14 10° NW 18:30:23 11° NNW 18:30:23 11° NNW visible
05 Dec 0.1 17:31:42 10° NW 17:33:38 15° N 17:34:51 13° NNE visible
06 Dec 0.2 18:10:28 10° NW 18:11:38 15° NNW 18:11:38 15° NNW visible
07 Dec 0.0 17:12:05 10° NW 17:14:06 15° N 17:16:05 10° NE visible
08 Dec -0.7 17:50:23 10° NW 17:52:58 23° NNE 17:52:58 23° NNE visible
